Regional Weather Roundup
Issued by NWS

Home | Current Version | Previous Version | Graphics & Text | Print | Product List | Glossary On
Versions: 1 2 3 4 5 6 7 8 9 10 11 12 13 14 15 16 17 18 19 20 21 22 23 24 25 26 27 28 29 30 31 32 33 34 35 36 37 38 39 40 41 42 43 44 45 46 47 48 49 50
000
ASUS43 KLOT 031208
RWRIL

ILLINOIS REGIONAL WEATHER ROUNDUP
NATIONAL WEATHER SERVICE CHICAGO/ROMEOVILLE IL
700 AM CDT FRI JUL 03 2015

NOTE: "FAIR" INDICATES FEW OR NO CLOUDS BELOW 12,000 FEET WITH NO
SIGNIFICANT WEATHER AND/OR OBSTRUCTIONS TO VISIBILITY.

* THESE STATIONS ARE NOT UNDER NWS QUALITY CONTROL. THEY ALSO MAY NOT
  REPORT WEATHER SUCH AS PRECIPITATION OR FOG.

ILZ001-002-007-009-015-016-024-031300-
NORTHWEST ILLINOIS

CITY           SKY/WX    TMP DP  RH WIND       PRES   REMARKS
MOLINE         CLOUDY    61  56  83 NE3       29.97R
6HR MIN TEMP:  59; 6HR MAX TEMP:  63;

STERLING*      MOSUNNY   57  54  88 NE3       29.98R
SAVANNA*       MOSUNNY   58  54  86 N3        29.99S
$$

ILZ003-004-008-010-011-017-018-031300-
NORTH CENTRAL ILLINOIS

CITY           SKY/WX    TMP DP  RH WIND       PRES   REMARKS
ROCKFORD       CLOUDY    59  50  72 N5        30.00R
6HR MIN TEMP:  56; 6HR MAX TEMP:  59;

FREEPORT*      MOSUNNY   53  51  94 CALM      30.01R
ROCHELLE*      MOSUNNY   55  51  88 NE3       29.99R
DE KALB*       PTSUNNY   55  52  88 NE3       29.99R
PERU*          CLOUDY    58  52  79 NE7       29.98R
$$

ILZ005-006-012>014-019>023-031300-
NORTHEAST ILLINOIS

CITY           SKY/WX    TMP DP  RH WIND       PRES   REMARKS
CHICAGO-OHARE  PTSUNNY   59  54  83 N3        29.98R
6HR MIN TEMP:  55; 6HR MAX TEMP:  59;

CHICAGO-MIDWAY PTSUNNY   64  58  80 N3        29.97R
6HR MIN TEMP:  61; 6HR MAX TEMP:  64;

AURORA         PTSUNNY   59  52  77 NE7       29.98R
6HR MIN TEMP:  55; 6HR MAX TEMP:  59;

LANSING*       PTSUNNY   60  54  79 CALM      29.97R
JOLIET*        PTSUNNY   61  56  85 NE3       29.97R
WAUKEGAN       CLOUDY    57  53  86 N3        29.98S
6HR MIN TEMP:  51; 6HR MAX TEMP:  57;

DUPAGE AIRPORT MOSUNNY   57  54  89 N5        29.97R
6HR MIN TEMP:  53; 6HR MAX TEMP:  57;

KANKAKEE*      CLOUDY    61  57  88 NE5       29.96S
WHEELING       PTSUNNY   57  53  86 CALM      29.99S
6HR MIN TEMP:  54; 6HR MAX TEMP:  57;

MORRIS*        CLOUDY    58  54  86 CALM      29.96R
ROMEOVILLE*    PTSUNNY   59  55  87 NE3       29.98R
NORTHERLY ISL    N/A     62  56  80 NE5         N/A
$$

LMZ740>746-031300-
SOUTHERN LAKE MICHIGAN

STATION/POSITION SKY/WX   TEMP    WIND        PRES    VSBY  WAVE
                          AIR SEA DIR/SP/G                  HT/PER
                          (F)     (DEG/KT/KT) (MB)    (MI)  (FT/S)
HARRISON CRIB              61      80/  4/  5   N/A
BURNHAM HARBOR             62      30/  3/  4   N/A
CALUMET HARBOR             63      60/  4/  5   N/A
BURNS HARBOR               62      90/  8/ 13 1014.9S
MICHIGAN CITY              60      90/  8/ 13   N/A
MICHIGAN CITY 6N           62 63  120/  8/ 12   N/A           1/ 4
ST. JOSEPH                 60 61                N/A           1/ 4
$$

ILZ025>027-034>036-040-047-049-050-058-095>099-031300-
WEST-CENTRAL ILLINOIS

CITY           SKY/WX    TMP DP  RH WIND       PRES   REMARKS
QUINCY         PTSUNNY   63  60  90 NE7       29.94R
GALESBURG*     CLOUDY    59  56  91 N5        29.96R
MACOMB*        CLOUDY    60  59  96 N3        29.98R FOG
JACKSONVILLE*  PTSUNNY   64  62  91 N5        29.93R
PITTSFIELD*    MOSUNNY   64  61  91 CALM      29.94R
$$

ILZ028>032-037-038-041>044-048-051>054-059>061-031300-
CENTRAL ILLINOIS

CITY           SKY/WX    TMP DP  RH WIND       PRES   REMARKS
PONTIAC        CLOUDY    61  58  90 NE6       29.97R
BLOOMINGTON    CLOUDY    60  59  97 NE8       29.96R
DECATUR        CLOUDY    63  60  90 NE7       29.92R
PEORIA         CLOUDY    63  55  75 NE7       29.95R
6HR MIN TEMP:  63; 6HR MAX TEMP:  67; 6HR PCP: TRACE;

LACON*         CLOUDY    59  54  83 CALM      29.96R
LINCOLN*       CLOUDY    63  58  86 NE6       29.94R
SPRINGFIELD    PTSUNNY   64  60  87 N6        29.93R
6HR MIN TEMP:  64; 6HR MAX TEMP:  68; 6HR PCP: TRACE;

TAYLORVILLE    PTSUNNY   61  59  94 N3        29.91S FOG
$$

ILZ033-039-045-046-055>057-062-063-031300-
EAST-CENTRAL ILLINOIS

CITY           SKY/WX    TMP DP  RH WIND       PRES   REMARKS
CHAMPAIGN      PTSUNNY   65  59  81 NE7       29.93R
DANVILLE*      RAIN      62  58  88 NE6       29.91R
RANTOUL*       PTSUNNY   64  60  85 NE7       29.94R
MATTOON        MOSUNNY   64  62  93 NE6       29.89S
PARIS*         PTSUNNY   65  62  90 N3        29.91S
$$

ILZ079-100>102-031300-
SOUTHWEST ILLINOIS

CITY           SKY/WX    TMP DP  RH WIND       PRES   REMARKS
ALTON          CLOUDY    64  64 100 N6        29.91S
BELLEVILLE     MOSUNNY   67  67  99 VRB2      29.89R
CAHOKIA*       CLOUDY    69  63  81 N5        29.90R
SPARTA*        CLOUDY    67  64  88 CALM      29.90S
$$

ILZ064>066-069>071-074>076-080>082-084>086-088>090-092>094-031300-
SOUTH-CENTRAL ILLINOIS

CITY           SKY/WX    TMP DP  RH WIND       PRES   REMARKS
CARBONDALE     MOSUNNY   69  65  86 N7        29.87S
6HR MIN TEMP:  68; 6HR MAX TEMP:  71;

CAIRO*         PTSUNNY   71  69  95 CALM      29.87R
EFFINGHAM*     MOSUNNY   66  62  87 CALM      29.90S FOG
MARION         MOSUNNY   70  68  94 NW6       29.88S
MT. VERNON     PTSUNNY   68  63  83 CALM      29.89R
CENTRALIA*     MOSUNNY   66  63  87 N5        29.89S FOG
SALEM*         CLOUDY    68  65  89 CALM      29.89S FOG
METROPOLIS*    RAIN      71  71 100 CALM      29.87R
$$

ILZ067-068-072-073-078-083-087-091-031300-
SOUTHEAST ILLINOIS

CITY           SKY/WX    TMP DP  RH WIND       PRES   REMARKS
LAWRENCEVILLE  PTSUNNY   71  68  90 NE5       29.87S FOG
FLORA*         PTSUNNY   68  66  93 CALM      29.89R FOG
FAIRFIELD*     CLOUDY    69  67  94 CALM      29.86S FOG
HARRISBURG*    PTSUNNY   70  69  98 NW3       29.88S FOG
ROBINSON*      CLOUDY    69  66  91 N5        29.89S
CARMI*         CLOUDY    71  65  83 NW3       29.86S HAZE
$$

ABBREVIATIONS USED IN REMARKS
   TC - TEMPERATURE IN CELSIUS
  WCI - WIND CHILL INDEX
   HX - HEAT INDEX
  VSB - VISIBILITY
$$




USA.gov is the U.S. government's official web portal to all federal, state and local government web resources and services.